Location: Madrid
(40.4000°N, 3.6830°W)
Time: 12:05:44
(UTC+02:00)

ISS - Pass Details

Date: 27 May 2020
Orbit: 417 x 419 km, 51.6° (Epoch: 31 May)

Event Time Altitude Azimuth Distance (km) Brightness Sun altitude
Rises 22:19:01 0° 308° (NW) 2,365 2.7 -7.8°
Reaches altitude 10° 22:22:01 10° 338° (NNW) 1,501 0.1 -8.2°
Maximum altitude 22:23:42 13° 7° (N) 1,328 -0.8 -8.5°
Drops below altitude 10° 22:25:22 10° 37° (NE) 1,501 -0.9 -8.8°
Sets 22:28:23 0° 67° (ENE) 2,365 -0.2 -9.2°
